Miscellaneous Local Product
Issued by NWS Hastings, NE

Home | Current Version | Previous Version | Graphics & Text | Print | Product List | Glossary On
Versions: 1 2 3 4 5 6 7 8 9 10 11 12 13 14 15 16 17 18 19 20 21 22 23 24 25 26 27 28 29 30 31 32 33 34 35 36 37 38 39 40 41 42 43 44 45 46 47 48 49 50
000
AXUS43 KGID 021502
MISGRI

GID CWA HOURLY WEATHER ROUNDUP
NATIONAL WEATHER SERVICE HASTINGS NE
1000 AM CDT SAT MAY 02 2015

NOTE: "FAIR" INDICATES FEW OR NO CLOUDS BELOW 12,000 FEET WITH NO
SIGNIFICANT WEATHER AND/OR OBSTRUCTIONS TO VISIBILITY.

...SOUTH CENTRAL NEBRASKA...

CITY           SKY/WX    TMP DP  RH WIND       PRES   REMARKS
GRAND ISLAND   MOSUNNY   68  53  58 SW7       29.90S
HASTINGS       PTSUNNY   66  52  60 SW9G17    29.90R
KEARNEY        SUNNY     70  52  52 W8        29.90F
ORD            SUNNY     66  52  60 CALM      29.87F
YORK           MOSUNNY   63  55  77 S15       29.91F
AURORA         MOSUNNY   65  56  71 S7        29.90S
LEXINGTON      SUNNY     67  54  61 SW7       29.91F
HOLDREGE       SUNNY     68  51  53 SW10      29.90F
HEBRON         CLOUDY    65  51  60 S7        29.92F

...NEBRASKA PANHANDLE...

CITY           SKY/WX    TMP DP  RH WIND       PRES   REMARKS
CHADRON        SUNNY     63  51  65 W7        29.83F
ALLIANCE       SUNNY     64  49  57 W8        29.87F
SCOTTSBLUFF    SUNNY     63  45  51 W10       29.89F
SIDNEY         SUNNY     67  50  54 W12       29.92F

...WESTERN AND NORTH CENTRAL NEBRASKA...

CITY           SKY/WX    TMP DP  RH WIND       PRES   REMARKS
VALENTINE      SUNNY     67  50  54 S7        29.85F
AINSWORTH      SUNNY     66  53  62 SE10      29.87F
ONEILL         PTSUNNY   65  55  71 S7        29.88S
BROKEN BOW     SUNNY     65  52  62 SE5       29.89F
IMPERIAL       SUNNY     64  52  64 SW7       29.91S
NORTH PLATTE   SUNNY     64  54  69 CALM      29.90F
MCCOOK         SUNNY     70  51  51 S8        29.89F

...EASTERN NEBRASKA...

CITY           SKY/WX    TMP DP  RH WIND       PRES   REMARKS
NORFOLK        MOSUNNY   66  55  67 S21G29    29.88F
SO SIOUX CITY  PTSUNNY   58  49  72 E7        29.90R
TEKAMAH        LGT RAIN  67  59  75 S20       29.90F
COLUMBUS       MOSUNNY   64  52  63 S18       29.92S
ALBION         SUNNY     66  53  62 S5        29.89S
OMAHA EPPLEY   CLOUDY    60  57  89 S14       29.96S
OFFUTT AFB     LGT RAIN  58  55  90 SE13      29.97F
MILLARD        CLOUDY    61  56  83 SE15      29.96S
LINCOLN        LGT RAIN  60  52  74 SE12      29.94F
NEBRASKA CITY  TSTM      55  52  91 S12       29.99S
BEATRICE       CLOUDY    58  50  76 SE10G18   29.95F
FALLS CITY     CLOUDY    57  49  74 SE8       30.01F

...NORTHERN KANSAS...

CITY           SKY/WX    TMP DP  RH WIND       PRES   REMARKS
GOODLAND       SUNNY     67  51  56 SW12      29.93F
HILL CITY      SUNNY     70  51  51 SW18      29.92F
NORTON         SUNNY     70  48  46 S10       29.90F
PHILLIPSBURG   SUNNY     73  54  49 S12       29.91F
SMITH CENTER   SUNNY     68  52  56 S14G21    29.92F
BELOIT         PTSUNNY   66  54  63 S14       29.92F
HAYS           MOSUNNY   72  50  46 S16       29.94F
RUSSELL        MOSUNNY   70  53  54 S21G26    29.93F
CONCORDIA      CLOUDY    66  52  60 SW18      29.92F
SALINA         CLOUDY    64  55  72 S9        29.98S
TOPEKA         CLOUDY    62  47  57 SE6       30.02S



USA.gov is the U.S. government's official web portal to all federal, state and local government web resources and services.